Tracking 19476 objects as of 18-Jan-2019
HD Live streaming from Space Station
objects crossing your sky now

DMSP 5D-2 F9 (USA 29)

Track DMSP 5D-2 F9 (USA 29) now!
10-day predictions
DMSP 5D-2 F9 (USA 29) is classified as:


NORAD ID: 18822
Int'l Code: 1988-006A
Perigee: 803.0 km
Apogee: 813.4 km
Inclination: 98.5 °
Period: 100.9 minutes
Semi major axis: 7179 km
RCS: 3.9585 m2 (large)
Launch date: February 3, 1988
Source: United States (US)
Launch site: AIR FORCE WESTERN TEST RANGE (AFWTR)
aabbcc
Your satellite tracking list
Your tracking list is empty




NASA's NSSDC Master Catalog

Two Line Element Set (TLE):
1 18822U 88006A   19017.56845281  .00000008  00000-0  21023-4 0  9990
2 18822  98.5373 254.9587 0007246 118.2010 241.9903 14.27221492609951
Source of the keplerian elements: AFSPC